STARLINK-31552, 59356

Orbit data source: Space-Track

STARLINK-31552, 59356 is a payload satellite owned by SpaceX/Seattle (US) in LEO that was launched on Sun, 31 Mar 2024 UTC via an FALCON 9 launch vehicle from the Air Force Eastern Test Range (AFETR). Payload-class satellites include a variety of spacecraft equipped with specific instruments for various scientific and technological missions. These include communications satellites like Starlink; space stations such as the ISS; scientific satellites like the Hubble; Earth observation satellites from companies like Planet Labs, Umbra, and HawkEye 360; GPS; miniature CubeSats for education and research; and military/defense satellites.

Loading next visibility...
Identifier
59356, 2024-060J
Orbit
LEO
Country
Flag of USUS
Related business
Manufacturer
SpaceX/Seattle
Mission
Operational Commercial Communications
Bus & Motor
STARLINK V2M, Unknown motor
Mass
730 kg wet, ~700 kg dry
Launch date (UTC)
2024-03-31 (2 years ago)
Launch vehicle
FALCON 9
Launch site
Air Force Eastern Test Range (AFETR)
Object type
Payload
Rocket body
Debris
Shape & HBR
Box + 2 Pan, 17.7 m
Radar Cross Section
33.884 m², Large (>1 m²)

Expand to show TLE details & history
Last TLE update: 3 days ago

TLE from 3 days ago
0 STARLINK-31552
1 59356U 24060J   26170.98526093  .00001245  00000-0  54763-4 0  9999
2 59356  43.0037  42.5009 0001318 268.9636  91.1064 15.27581295125701
Epoch: 2026-06-19T23:38Z
TLE epoch observation values (Epoch: 2026-06-19T23:38:46.544Z)
Latitude
-0.00006°
Longitude
139.60052°
Altitude
482.839 km
Speed
7.626 km/s
True Right ascension
02h 50m 00s
True Declination
0° 00' 00"
Sunlit
Object was in daylight at epoch
Visualization orbit readout
Latitude
Unknown
Longitude
Unknown
Altitude
Unknown
Speed
Unknown
Apparent Right ascension
Unknown
Apparent Declination
Unknown
Sunlit
N/A
Visualization observer readout
Local Sidereal Time
23:19:47
Azimuth
Unknown
Elevation
Unknown
Doppler factor
Unknown
Orbital elements
Apogee altitude
485.894 km
Perigee altitude
484.085 km
Semi-major axis
6,863.127 km
Eccentricity
0.00013
Inclination
43.0037°
RAAN
42.5009°
Arg. of periapsis
268.9636°
True anomaly
91.1215°
Mean anomaly
91.1064°
Eccentric anomaly
91.11395°
Mean motion
3.81733 °/min
Orbital period
94.31 mins
BSTAR
0.000054763
Loading maneuver chart data...
Computing Atmospheric mass density...
Loading historical data...
Loading historical data...
Loading historical data...
Loading historical data...
Loading historical data...
Loading historical data...
Loading historical data...

Documentation

Showing up to 5 results
|